{"data":{"norad_id":66191,"epoch":"2026-09-20T22:24:24.828480Z","epoch_age_seconds":62905,"freshness":"FRESH","line1":"1 66191U 25243Q   26263.93362070  .00020622  00000+0  61972-3 0  9997","line2":"2 66191  53.1585  55.7303 0001166  96.6421 263.4715 15.34404371 50585","mean_motion":15.34404371,"eccentricity":0.0001166,"inclination_deg":53.1585,"raan_deg":55.7303,"arg_perigee_deg":96.6421,"mean_anomaly_deg":263.4715,"bstar":0.00061972,"rev_number":5058,"period_min":93.847490740757,"perigee_km":461.8926082476,"apogee_km":463.487889162,"semimajor_km":6840.8272487048,"source":"CELESTRAK","updated_at":"2026-09-21T09:00:35.836310Z"}}